Buzzards Bay, MA

12:22 PM EST on February 23, 2017 (GMT -0500)
Cape Cod Coast Guard Air Station

Weather History for KFMH - March, 2013

Change the Weather History Date:

Sunday, March 31, 2013

  Actual Average Record
Temperature  
Mean Temperature 40 °F -  
Max Temperature 55 °F 46 °F 68 °F (1998)
Min Temperature 24 °F 32 °F 17 °F (2008)
Degree Days  
Heating Degree Days 26    
Moisture  
Dew Point 31 °F    
Average Humidity 68    
Maximum Humidity 100    
Minimum Humidity 31    
Precipitation  
Precipitation 0.03 in - - ()
Sea Level Pressure  
Sea Level Pressure 30.05 in    
Wind  
Wind Speed 6 mph (South)    
Max Wind Speed 24 mph    
Max Gust Speed 32 mph    
Visibility 10 miles    
Events Rain    
Averages and records for this station are not official NWS values.
T = Trace of Precipitation, MM = Missing Value Source: NWS Daily Summary

Daily Weather History Graph

Daily Weather History Graph

Search for Another Location

Airport or City:

Trip Planner

Search our weather history database for the weather conditions in past years. The results will help you decide how hot, cold, wet, or windy it might be!

Date:

Astronomy

Mar. 31, 2013 Rise Set
Actual Time 6:26 AM EDT 7:06 PM EDT
Civil Twilight 5:58 AM EDT 7:34 PM EDT
Nautical Twilight 5:25 AM EDT 8:07 PM EDT
Astronomical Twilight 4:51 AM EDT 8:42 PM EDT
Moon No Moon Rise 9:07 AM EDT (3/31)
Length of Visible Light 13h 36m
Length of Day
12h 40m
Waning Gibbous, 78% of the Moon is Illuminated
Mar 31
Waning Gibbous
Apr 3
Last Quarter
Apr 10
New
Apr 18
First Quarter
Apr 25
Full

Hourly Weather History & Observations

Time (EDT) Temp. Windchill Dew Point Humidity Pressure Visibility Wind Dir Wind Speed Gust Speed Precip Events Conditions
12:15 AM 26.6 °F - 24.8 °F 93% 30.11 in 10.0 mi Calm Calm - N/A   Clear
12:35 AM 28.4 °F - 26.6 °F 93% 30.11 in 10.0 mi Calm Calm - N/A   Clear
12:55 AM 28.4 °F - 26.6 °F 93% 30.11 in 10.0 mi Calm Calm - N/A   Clear
1:15 AM 28.4 °F - 24.8 °F 86% 30.12 in 10.0 mi Calm Calm - N/A   Clear
1:35 AM 28.4 °F 24.6 °F 26.6 °F 93% 30.12 in 10.0 mi WSW 3.5 mph - N/A   Clear
1:55 AM 28.4 °F - 26.6 °F 93% 30.12 in 10.0 mi Calm Calm - N/A   Clear
2:15 AM 28.4 °F 24.6 °F 26.6 °F 93% 30.11 in 10.0 mi NW 3.5 mph - N/A   Clear
2:35 AM 26.6 °F - 24.8 °F 93% 30.11 in 10.0 mi Calm Calm - N/A   Clear
2:55 AM 26.6 °F - 24.8 °F 93% 30.11 in 10.0 mi Calm Calm - N/A   Clear
3:15 AM 26.6 °F - 24.8 °F 93% 30.10 in 10.0 mi Calm Calm - N/A   Clear
3:35 AM 26.6 °F - 24.8 °F 93% 30.10 in 10.0 mi Calm Calm - N/A   Clear
3:55 AM 24.8 °F 20.5 °F 23.0 °F 93% 30.11 in 10.0 mi WNW 3.5 mph - N/A   Clear
4:15 AM 26.6 °F - 24.8 °F 93% 30.11 in 10.0 mi Calm Calm - N/A   Clear
4:35 AM 26.6 °F - 24.8 °F 93% 30.11 in 10.0 mi Calm Calm - N/A   Clear
4:55 AM 26.6 °F - 26.6 °F 100% 30.12 in 10.0 mi Calm Calm - N/A   Clear
5:15 AM 26.6 °F - 24.8 °F 93% 30.12 in - Calm Calm - N/A   Unknown
5:35 AM 24.8 °F - 24.8 °F 100% 30.12 in 10.0 mi Calm Calm - N/A   Clear
5:55 AM 24.8 °F - 23.0 °F 93% 30.12 in 10.0 mi Calm Calm - N/A   Clear
6:15 AM 24.8 °F - 23.0 °F 93% 30.12 in 10.0 mi Calm Calm - N/A   Clear
6:35 AM 24.8 °F - 23.0 °F 93% 30.12 in 10.0 mi Calm Calm - N/A   Clear
6:55 AM 24.8 °F - 23.0 °F 93% 30.12 in 10.0 mi Calm Calm - N/A   Clear
7:35 AM 32.0 °F - 28.4 °F 87% 30.13 in 10.0 mi Calm Calm - N/A   Clear
7:55 AM 35.6 °F - 32.0 °F 87% 30.13 in 10.0 mi Calm Calm - N/A   Clear
8:15 AM 39.2 °F - 33.8 °F 81% 30.14 in 10.0 mi Calm Calm - N/A   Clear
8:35 AM 41.0 °F - 32.0 °F 70% 30.13 in 10.0 mi Calm Calm - N/A   Clear
8:55 AM 44.6 °F 43.1 °F 32.0 °F 61% 30.12 in 10.0 mi South 3.5 mph - N/A   Clear
9:15 AM 46.4 °F - 30.2 °F 53% 30.12 in 10.0 mi Calm Calm - N/A   Clear
9:35 AM 48.2 °F - 28.4 °F 46% 30.12 in 10.0 mi South 4.6 mph - N/A   Clear
9:55 AM 50.0 °F - 28.4 °F 43% 30.12 in 10.0 mi SSW 4.6 mph - N/A   Clear
10:15 AM 53.6 °F - 28.4 °F 38% 30.12 in 10.0 mi South 5.8 mph - N/A   Clear
10:35 AM 55.4 °F - 24.8 °F 31% 30.12 in 10.0 mi SSW 9.2 mph - N/A   Clear
10:55 AM 55.4 °F - 26.6 °F 33% 30.12 in 10.0 mi South 13.8 mph - N/A   Clear
11:15 AM 53.6 °F - 30.2 °F 41% 30.12 in 10.0 mi South 11.5 mph - N/A   Clear
11:35 AM 53.6 °F - 30.2 °F 41% 30.11 in 10.0 mi South 11.5 mph - N/A   Clear
11:55 AM 55.4 °F - 30.2 °F 38% 30.11 in 10.0 mi South 10.4 mph - N/A   Clear
12:15 PM 55.4 °F - 28.4 °F 36% 30.10 in 10.0 mi SSW 10.4 mph 18.4 mph N/A   Clear
12:35 PM 55.4 °F - 30.2 °F 38% 30.09 in 10.0 mi SSW 15.0 mph - N/A   Clear
12:55 PM 55.4 °F - 26.6 °F 33% 30.09 in 10.0 mi SW 11.5 mph 19.6 mph N/A   Clear
1:15 PM 53.6 °F - 28.4 °F 38% 30.09 in 10.0 mi WSW 11.5 mph 21.9 mph N/A   Clear
1:35 PM 55.4 °F - 28.4 °F 36% 30.08 in 10.0 mi SW 18.4 mph - N/A   Clear
1:55 PM 53.6 °F - 28.4 °F 38% 30.08 in 10.0 mi WSW 16.1 mph 20.7 mph N/A   Clear
2:15 PM 53.6 °F - 28.4 °F 38% 30.07 in 10.0 mi SW 17.3 mph - N/A   Clear
2:35 PM 53.6 °F - 28.4 °F 38% 30.06 in 10.0 mi SW 15.0 mph 23.0 mph N/A   Clear
2:55 PM 53.6 °F - 28.4 °F 38% 30.06 in 10.0 mi WSW 15.0 mph 21.9 mph N/A   Clear
3:15 PM 53.6 °F - 28.4 °F 38% 30.06 in 10.0 mi SW 12.7 mph 20.7 mph N/A   Clear
3:35 PM 51.8 °F - 28.4 °F 41% 30.04 in 10.0 mi SW 13.8 mph 21.9 mph N/A   Clear
3:55 PM 51.8 °F - 26.6 °F 38% 30.04 in 10.0 mi SW 12.7 mph - N/A   Clear
4:15 PM 51.8 °F - 26.6 °F 38% 30.03 in 10.0 mi SW 12.7 mph 19.6 mph N/A   Clear
4:35 PM 51.8 °F - 30.2 °F 44% 30.03 in 10.0 mi SSW 13.8 mph - N/A   Clear
4:55 PM 51.8 °F - 32.0 °F 47% 30.02 in 10.0 mi SSW 12.7 mph - N/A   Clear
5:15 PM 50.0 °F - 33.8 °F 54% 30.02 in 10.0 mi SSW 13.8 mph 19.6 mph N/A   Clear
5:35 PM 50.0 °F - 33.8 °F 54% 30.02 in 10.0 mi South 11.5 mph 21.9 mph N/A   Clear
5:55 PM 48.2 °F - 35.6 °F 62% 30.02 in 10.0 mi South 10.4 mph - N/A   Scattered Clouds
6:15 PM 48.2 °F - 37.4 °F 66% 30.01 in 10.0 mi South 9.2 mph - N/A   Partly Cloudy
6:35 PM 46.4 °F 42.4 °F 37.4 °F 71% 30.01 in 10.0 mi SSE 8.1 mph - N/A   Scattered Clouds
6:55 PM 46.4 °F 41.5 °F 37.4 °F 71% 30.00 in 10.0 mi SSE 10.4 mph - N/A   Mostly Cloudy
7:15 PM 46.4 °F 40.7 °F 37.4 °F 71% 29.99 in 10.0 mi South 12.7 mph - N/A   Overcast
7:35 PM 46.4 °F 40.4 °F 35.6 °F 66% 29.99 in 10.0 mi SSE 13.8 mph 17.3 mph N/A   Overcast
7:55 PM 46.4 °F 41.5 °F 33.8 °F 62% 29.98 in 10.0 mi South 10.4 mph - N/A   Overcast
8:15 PM 46.4 °F 40.7 °F 32.0 °F 57% 29.96 in 10.0 mi SSE 12.7 mph 19.6 mph N/A   Overcast
8:35 PM 48.2 °F - 32.0 °F 54% 29.95 in 10.0 mi SSE 15.0 mph - N/A   Overcast
8:55 PM 46.4 °F 39.2 °F 33.8 °F 62% 29.93 in 10.0 mi SSE 18.4 mph - N/A   Overcast
9:15 PM 46.4 °F 39.2 °F 35.6 °F 66% 29.93 in 10.0 mi SSE 18.4 mph 26.5 mph N/A   Overcast
9:35 PM 46.4 °F 39.8 °F 35.6 °F 66% 29.91 in 10.0 mi SSE 16.1 mph 24.2 mph N/A   Overcast
9:55 PM 46.4 °F 39.2 °F 35.6 °F 66% 29.89 in 10.0 mi SSE 18.4 mph 25.3 mph N/A   Overcast
10:15 PM 44.6 °F 36.9 °F 39.2 °F 81% 29.87 in 5.0 mi SE 18.4 mph 25.3 mph N/A   Haze
10:35 PM 44.6 °F 36.9 °F 39.2 °F 81% 29.85 in 8.0 mi SSE 18.4 mph 28.8 mph N/A Rain Light Rain
10:55 PM 44.6 °F 36.1 °F 41.0 °F 87% 29.82 in 7.0 mi SSE 21.9 mph 31.1 mph N/A Rain Light Rain
11:15 PM 44.6 °F 36.4 °F 41.0 °F 87% 29.80 in 7.0 mi SSE 20.7 mph 28.8 mph N/A   Overcast
11:35 PM 44.6 °F 35.7 °F 41.0 °F 87% 29.77 in 3.0 mi SE 24.2 mph 32.2 mph N/A Rain Light Rain
11:55 PM 44.6 °F 35.7 °F 42.8 °F 93% 29.75 in 2.5 mi SE 24.2 mph 31.1 mph 0.01 in Rain Light Rain